Weather Roundup
Issued by NWS

Home | Current Version | Previous Version | Graphics & Text | Print | Product List | Glossary Off
Versions: 1 2 3 4 5 6 7 8 9 10 11 12 13 14 15 16 17 18 19 20 21 22 23 24 25 26 27 28 29 30 31 32 33 34 35 36 37 38 39 40 41 42 43 44 45 46 47 48 49 50

000
NZUS93 KARX 031310
HRRWXR

CURRENT HOURLY OBSERVATIONS ACROSS
MUCH OF THE UPPER MISSISSIPPI VALLEY
NATIONAL WEATHER SERVICE LA CROSSE WI
800 AM CDT THU SEP 03 2015


...SOUTHEAST MINNESOTA...


CITY           SKY/WX    TMP DP  RH WIND       PRES   REMARKS
ROCHESTER      SUNNY     68  67  96 S5        29.93S FOG
ROCHESTER/MAYO FAIR      69  70 100 E3        29.92F
WINONA         FOG       70  68  94 CALM      29.93R VSB<1/4
AUSTIN         SUNNY     72  70  94 S5        29.93S FOG
ALBERT LEA     SUNNY     70  68  94 SE5       29.92S FOG
DODGE CENTER   SUNNY     66  66 100 CALM      29.93S FOG
PRESTON        SUNNY     68  66  94 S3        29.94S FOG
OWATONNA       SUNNY     70  66  88 SE7       29.91S FOG
FARIBAULT      SUNNY     68  66  94 CALM      29.91S FOG
$$

...ELSEWHERE IN MINNESOTA...


CITY           SKY/WX    TMP DP  RH WIND       PRES   REMARKS
MINNEAPOLIS    CLOUDY    69  68  96 SE7       29.92R FOG
INTNL FALLS    CLOUDY    63  61  93 SE12      29.96R
DULUTH         DRZL/FOG  61  60  97 E9        29.99R VSB 1/4
RED WING       CLOUDY    70  68  94 E3        29.91S
REDWOOD FALLS  FOG       69  68  96 E7        29.86S VSB 1/4
MANKATO        SUNNY     70  66  88 SE8       29.90R
WORTHINGTON    SUNNY     68  64  88 S6        29.88S
FAIRMONT       SUNNY     66  63  88 SE6       29.89R
$$

...SOUTHWEST WISCONSIN...


CITY           SKY/WX    TMP DP  RH WIND       PRES   REMARKS
LA CROSSE      SUNNY     72  69  90 CALM      29.92R FOG
PRAIRIE DU CHI SUNNY     73  68  86 CALM      29.91S
BOSCOBEL       SUNNY     71  69  93 CALM      29.93R FOG
LONE ROCK      SUNNY     70  67  90 CALM      29.94S FOG
PLATTEVILLE    SUNNY     72  70  94 S3        29.95R
FORT MC COY    MOSUNNY   65  64  94 CALM      29.94R
CAMP DOUGLAS   MOSUNNY   66  66 100 CALM      29.93S
VIROQUA          N/A     69  69 100 CALM      29.95R
WIS DELLS      SUNNY     71  68  89 CALM      29.94S
$$

...ELSEWHERE IN WISCONSIN...


CITY           SKY/WX    TMP DP  RH WIND       PRES   REMARKS
MILWAUKEE      PTSUNNY   74  67  78 SW9       29.92R
MADISON        MOSUNNY   74  68  81 VRB3      29.93S
GREEN BAY      CLOUDY    69  66  90 NW9       29.92S
EAU CLAIRE     FOG       66  65  96 NE10      29.93S VSB 1/4
BLACK RVR FLS  CLOUDY    69  69 100 CALM      29.93S FOG
MEDFORD        CLOUDY    64  64 100 NE7       29.99S FOG
WAUSAU         CLOUDY    66  64  93 N5        29.95S
WIS RAPIDS     CLOUDY    67  65  93 NE6       29.96R FOG
MARSHFIELD     FOG       66  63  90 NE8       29.96S VSB 1
RICE LAKE      PTSUNNY   64  63  96 E5        29.98R
$$

...NORTHEAST IOWA...


CITY           SKY/WX    TMP DP  RH WIND       PRES   REMARKS
DECORAH        SUNNY     72  70  94 SW7       29.93S
MASON CITY     SUNNY     68  67  96 SE3       29.94R FOG
CHARLES CITY   SUNNY     70  70 100 SE5       29.94R FOG
OELWEIN          N/A    N/A N/A N/A MISG        N/A
$$

...ELSEWHERE IN IOWA...


CITY           SKY/WX    TMP DP  RH WIND       PRES   REMARKS
DES MOINES     PTSUNNY   74  69  85 S6        29.91R
IOWA CITY      SUNNY     71  68  90 SE3       29.96S
FORT DODGE     SUNNY     72  66  83 SE5       29.92R
$$

...NORTHERN ILLINOIS...


CITY           SKY/WX    TMP DP  RH WIND       PRES   REMARKS
CHICAGO-OHARE  MOSUNNY   75  68  78 SW7       29.96R
CHICAGO-MIDWAY MOSUNNY   78  67  68 SW9       29.96S
MOLINE         MOSUNNY   75  68  78 SW5       29.96S
ROCKFORD       SUNNY     73  68  84 S5        29.97S
PEORIA         SUNNY     74  67  78 S5        30.00R
$$

NOTE: "FAIR" INDICATES FEW OR NO CLOUDS BELOW 12,000 FEET WITH NO
SIGNIFICANT WEATHER AND/OR OBSTRUCTIONS TO VISIBILITY. WIND
SPEEDS ARE IN MILES-PER-HOUR.



USA.gov is the U.S. government's official web portal to all federal, state and local government web resources and services.